Location: Dal�� Lhota
(48.7500°N, 14.0167°E)
Time: 01:17:02
(UTC+00:00)

ISS - Pass Details

Date: 27 June 2021
Orbit: 419 x 421 km, 51.6° (Epoch: 02 August)

Event Time Altitude Azimuth Distance (km) Brightness Sun altitude
Exits shadow 02:15:27 - 183° (S) 2,064 -0.7 -6.6°
Reaches altitude 10° 02:17:49 10° 155° (SSE) 1,495 -1.2 -6.3°
Maximum altitude 02:19:00 12° 134° (SE) 1,408 -1.1 -6.2°
Drops below altitude 10° 02:20:11 10° 113° (ESE) 1,499 -0.7 -6.0°
Sets 02:23:28 0° 79° (E) 2,368 1.1 -5.7°
